Вернуться в каталог

STARLINK-37547

АктивенСвязьSSO
NORAD 68846·PAYLOAD·🇺🇸 United States

Запущен Apr 26, 2026 с Vandenberg Space Force Base

Loading…

Ближайшие Пролёты (ближайшие 24 часа)

TLE

СвежийSource: CelesTrak SupGP

Эпоха: Sep 15, 2026, 03:34 UTC

1 68846C 26094H   26258.14909722 -.00053022  00000+0 -16461-2 0  2581
2 68846  97.2837 271.3128 0001411  91.0606 328.1395 15.33462469    18

Отслеживайте STARLINK-37547 в реальном времени с AllMySat

Download on the App Store